Location: Nijmegen RU
(51.8233°N, 354.1314°E)
Time: 22:54:58
(UTC+01:00)

Envisat - Pass Details

Date: 23 February 2019
Orbit: 764 x 766 km, 98.2° (Epoch: 24 March)

Event Time Altitude Azimuth Distance (km) Brightness Sun altitude
Rises 21:21:51 0° 212° (SSW) 3,225 6.4 -23.7°
Reaches altitude 10° 21:24:57 10° 232° (SW) 2,304 5.9 -24.2°
Maximum altitude 21:28:14 17° 273° (W) 1,861 5.8 -24.7°
Drops below altitude 10° 21:31:33 10° 313° (NW) 2,315 6.3 -25.1°
Sets 21:34:41 0° 334° (NNW) 3,247 6.9 -25.6°
